Atlanta Fulton, GA

10:15 PM EDT on June 23, 2018 (GMT -0400)
Fulton County-Brown

Weather History for KFTY - April, 2014

Change the Weather History Date:

Saturday, April 12, 2014

  Actual Average Record
Temperature  
Mean Temperature 64 °F 60 °F  
Max Temperature 82 °F 72 °F 84 °F (2001)
Min Temperature 46 °F 48 °F 35 °F (1998)
Degree Days  
Heating Degree Days 1 6  
Month to date heating degree days 60 82  
Since 1 July heating degree days 3039 2781  
Cooling Degree Days 0 1  
Month to date cooling degree days 7 10  
Year to date cooling degree days 7 16  
Growing Degree Days 14 (Base 50)    
Moisture  
Dew Point 49 °F    
Average Humidity 62    
Maximum Humidity 93    
Minimum Humidity 30    
Precipitation  
Precipitation 0.00 in 0.14 in 3.45 in (1962)
Month to date precipitation 3.45 1.53  
Year to date precipitation 12.14 15.51  
Snow  
Snow 0.00 in - - ()
Month to date snowfall 0.0  
Since 1 July snowfall T  
Snow Depth -    
Sea Level Pressure  
Sea Level Pressure 30.15 in    
Wind  
Wind Speed 2 mph (SSE)    
Max Wind Speed 14 mph    
Max Gust Speed 21 mph    
Visibility 10 miles    
Events      
T = Trace of Precipitation, MM = Missing Value Source: NWS Daily Summary

Daily Weather History Graph

Daily Weather History Graph

Search for Another Location

Airport or City:

Astronomy

Apr. 12, 2014 Rise Set
Actual Time 7:11 AM EDT 8:06 PM EDT
Civil Twilight 6:45 AM EDT 8:32 PM EDT
Nautical Twilight 6:15 AM EDT 9:02 PM EDT
Astronomical Twilight 5:44 AM EDT 9:33 PM EDT
Moon 5:50 PM EDT (4/12) 5:30 AM EDT (4/12)
Length of Visible Light 13h 46m
Length of Day
12h 55m
Waxing Gibbous, 93% of the Moon is Illuminated
Apr 12
Waxing Gibbous
Apr 15
Full
Apr 22
Last Quarter
Apr 29
New
May 6
First Quarter

Hourly Weather History & Observations

Time (EDT) Temp. Dew Point Humidity Pressure Visibility Wind Dir Wind Speed Gust Speed Precip Events Conditions
12:53 AM 52.0 °F 46.9 °F 83% 30.19 in 10.0 mi Calm Calm - N/A   Clear
1:53 AM 53.1 °F 48.0 °F 83% 30.17 in 10.0 mi Calm Calm - N/A   Clear
2:53 AM 51.1 °F 46.9 °F 86% 30.16 in 10.0 mi Calm Calm - N/A   Clear
3:53 AM 52.0 °F 46.0 °F 80% 30.15 in 10.0 mi Calm Calm - N/A   Clear
4:53 AM 48.0 °F 46.0 °F 93% 30.16 in 10.0 mi Calm Calm - N/A   Clear
5:53 AM 48.0 °F 46.0 °F 93% 30.17 in 10.0 mi Calm Calm - N/A   Clear
6:53 AM 48.0 °F 45.0 °F 89% 30.18 in 10.0 mi Calm Calm - N/A   Clear
7:53 AM 48.0 °F 46.0 °F 93% 30.20 in 10.0 mi Calm Calm - N/A   Clear
8:53 AM 55.0 °F 48.9 °F 80% 30.21 in 10.0 mi Calm Calm - N/A   Clear
9:53 AM 62.1 °F 50.0 °F 65% 30.22 in 10.0 mi Calm Calm - N/A   Clear
10:53 AM 70.0 °F 51.1 °F 51% 30.22 in 10.0 mi Calm Calm - N/A   Clear
11:53 AM 73.0 °F 48.9 °F 42% 30.21 in 10.0 mi ESE 5.8 mph - N/A   Clear
12:53 PM 73.9 °F 48.0 °F 40% 30.19 in 10.0 mi Calm Calm - N/A   Clear
1:53 PM 77.0 °F 48.9 °F 37% 30.16 in 10.0 mi Calm Calm - N/A   Clear
2:53 PM 79.0 °F 48.9 °F 35% 30.13 in 10.0 mi ESE 5.8 mph - N/A   Clear
3:53 PM 80.1 °F 48.0 °F 32% 30.10 in 10.0 mi SSW 5.8 mph - N/A   Clear
4:53 PM 81.0 °F 46.9 °F 30% 30.08 in 10.0 mi SE 10.4 mph 16.1 mph N/A   Clear
5:53 PM 81.0 °F 48.9 °F 33% 30.07 in 10.0 mi SSE 11.5 mph 19.6 mph N/A   Clear
6:53 PM 79.0 °F 48.0 °F 34% 30.07 in 10.0 mi South 8.1 mph - N/A   Clear
7:53 PM 77.0 °F 48.9 °F 37% 30.09 in 10.0 mi South 6.9 mph - N/A   Clear
8:53 PM 73.9 °F 50.0 °F 43% 30.09 in 10.0 mi SSE 4.6 mph - N/A   Clear
9:53 PM 66.9 °F 53.1 °F 61% 30.11 in 10.0 mi Calm Calm - N/A   Clear
10:53 PM 63.0 °F 53.1 °F 70% 30.11 in 10.0 mi Calm Calm - N/A   Clear
11:53 PM 60.1 °F 53.1 °F 78% 30.11 in 10.0 mi Calm Calm - N/A   Clear